Lid_Strength_Index
1 1 2 1 1 1 1 0 -1 -0 -0 -0 0 1 2 3 4 5 3 1 1 2
1 1 1 1 1 0 1 0 -0 0 -0 -0 1 1 2 3 3 4 5 1 2 2
1 1 1 1 1 1 0 0 0 0 -0 0 1 1 2 3 3 4 5 4 2 2
1 1 1 1 1 1 0 0 1 0 0 0 1 1 2 3 4 4 5 5 5 2
1 1 1 1 1 1 1 1 0 -0 0 0 1 1 2 3 4 5 5 5 6 4
1 1 1 1 1 1 1 1 0 0 1 0 1 2 2 2 4 5 5 5 6 6
1 1 1 1 1 1 1 1 1 0 0 0 1 1 2 3 3 4 5 5 5 6
1 1 1 1 1 1 1 1 1 1 0 0 0 1 2 2 3 4 5 6 5 6
1 1 1 1 1 1 1 1 1 1 1 1 1 3 4 2 2 4 5 6 7 6
2 2 1 1 1 1 1 1 1 1 1 1 1 4 5 4 2 4 6 7 8 8
2 2 1 1 2 1 1 1 1 1 1 1 1 5 6 5 1 4 5 7 8 8
2 2 2 2 2 1 1 1 1 1 1 1 1 7 7 6 2 4 6 7 7 8
2 2 2 2 2 1 1 1 1 1 1 2 1 8 8 7 3 4 5 7 8 8
1 2 1 2 1 1 1 1 2 2 1 1 1 2 9 10 2 3 5 6 8 8